logo tempoitalia

Diretta Meteo Mauke Island, Samoalunedì 31 agosto ore 18:00

Mappa
Sereno 23 °C Sereno 24 Ore: T.min 22 T.max 26
Ponente Est Km/h 9.3 Punto di rugiada: 19 °C Umidità: 78% Visibilità: 0 Km
Il sole sorge alle: 05:38 Il sole tramonta alle: 17:20
31 Agosto 2026 18:00 tempo osservato: Sereno Sereno 23 78 1019 vento: Nord E 9.3
31 Agosto 2026 17:00 tempo osservato: Sereno Sereno 25 73 1018 vento: Nord E 9.3
31 Agosto 2026 16:00 tempo osservato: Sereno Sereno 25 73 1018 vento: Nord E 11.1
31 Agosto 2026 15:00 tempo osservato: Sereno Sereno 26 69 1018 vento: Nord E 14.8
31 Agosto 2026 14:00 tempo osservato: Sereno Sereno 26 69 1018 vento: Nord E 11.1
31 Agosto 2026 13:00 tempo osservato: Sereno Sereno 26 69 1019 vento: Nord E 14.8
31 Agosto 2026 12:00 tempo osservato: Sereno Sereno 26 69 1019 vento: Nord E 13
31 Agosto 2026 11:00 tempo osservato: Sereno Sereno 26 69 1020 vento: Nord E 14.8
31 Agosto 2026 10:00 tempo osservato: Sereno Sereno 26 69 1021 vento: Nord E 14.8
31 Agosto 2026 09:00 tempo osservato: Sereno Sereno 25 69 1021 vento: Nord E 14.8
31 Agosto 2026 08:00 tempo osservato: Sereno Sereno 24 73 1021 vento: Nord E 13
31 Agosto 2026 07:00 tempo osservato: Sereno Sereno 23 73 1021 vento: Nord E 11.1
31 Agosto 2026 06:00 tempo osservato: Sereno Sereno 23 73 1020 vento: Nord E 11.1
31 Agosto 2026 05:00 tempo osservato: Sereno Sereno 23 73 1020 vento: Nord E 13
31 Agosto 2026 04:00 tempo osservato: Sereno Sereno 23 78 1019 vento: Nord E 13
31 Agosto 2026 03:00 tempo osservato: Sereno Sereno 22 83 1019 vento: Nord E 13
31 Agosto 2026 02:00 tempo osservato: Sereno Sereno 23 73 1020 vento: Nord E 16.7
31 Agosto 2026 01:00 tempo osservato: Sereno Sereno 22 78 1020 vento: Nord E 14.8
31 Agosto 2026 00:00 tempo osservato: Sereno Sereno 22 78 1021 vento: Nord E 14.8
30 Agosto 2026 23:00 tempo osservato: Sereno Sereno 22 78 1021 vento: Nord E 16.7
30 Agosto 2026 22:00 tempo osservato: Sereno Sereno 23 73 1021 vento: Nord E 13
30 Agosto 2026 21:00 tempo osservato: Sereno Sereno 22 78 1021 vento: Nord E 13
30 Agosto 2026 20:00 tempo osservato: Sereno Sereno 23 73 1021 vento: Nord E 13
30 Agosto 2026 19:00 tempo osservato: Sereno Sereno 22 78 1020 vento: Nord E 13